DW4604 Weather Reports


time (UTC)temp
F
wind
direction
speed
knots
gust
knots
rain 1hr
in
rain 24hr
in
rain mn
in
humidity
%
barometer
mb
20240527184002 70 0 0.0 0.0 0.00 0.03 0.00 59 1016.5
20240527183003 70 0 0.0 0.0 0.00 0.03 0.00 58 1016.6
20240527182501 71 0 0.0 0.0 0.00 0.03 0.00 58 1016.3
20240527182001 72 0 0.0 0.0 0.00 0.03 0.00 54 1016.4
20240527181501 72 0 0.0 0.0 0.00 0.03 0.00 52 1016.4
20240527180502 71 0 0.0 0.0 0.00 0.03 0.00 50 1016.4
20240527180002 71 0 0.0 0.0 0.00 0.03 0.00 49 1016.2
20240527175501 72 0 0.0 0.0 0.00 0.03 0.00 49 1016.1
20240527175001 72 0 0.0 0.0 0.00 0.03 0.00 48 1016.1
20240527174503 72 0 0.0 0.0 0.00 0.03 0.00 48 1016.1
20240527174002 73 0 0.0 0.0 0.00 0.03 0.00 47 1016.1
20240527173502 73 0 0.0 0.0 0.00 0.03 0.00 46 1016.1
20240527173001 74 0 0.0 0.0 0.00 0.03 0.00 45 1016.1
20240527172503 75 0 0.0 0.0 0.00 0.03 0.00 45 1016.1
20240527172002 75 0 0.0 0.0 0.00 0.03 0.00 43 1016.1
20240527171502 76 0 0.0 0.0 0.00 0.03 0.00 42 1016.1
20240527171002 76 0 0.0 0.0 0.00 0.03 0.00 43 1016.2
20240527170503 76 0 0.0 0.0 0.00 0.03 0.00 39 1016.1
20240527170002 76 0 0.0 0.0 0.00 0.03 0.00 41 1016.1
20240527165501 77 0 0.0 0.0 0.00 0.03 0.00 39 1016.0
20240527165002 77 0 0.0 0.0 0.00 0.03 0.00 41 1016.1
20240527164502 77 0 0.0 0.0 0.00 0.03 0.00 40 1016.1
20240527164002 77 0 0.0 0.0 0.00 0.03 0.00 42 1016.0
20240527163502 78 0 0.0 0.0 0.00 0.03 0.00 38 1016.1
20240527163003 78 0 0.0 0.0 0.00 0.03 0.00 38 1016.1
20240527162502 78 0 0.0 0.0 0.00 0.03 0.00 38 1016.1
20240527162003 78 0 0.0 0.0 0.00 0.03 0.00 37 1016.1
20240527161501 78 0 0.0 0.0 0.00 0.03 0.00 37 1016.1
20240527161002 79 0 0.0 0.0 0.00 0.03 0.00 36 1016.1
20240527160502 79 0 0.0 0.0 0.00 0.03 0.00 37 1016.2
20240527160002 79 0 0.0 0.0 0.00 0.03 0.00 39 1016.1
20240527155501 80 0 0.0 0.0 0.00 0.03 0.00 37 1016.2
20240527155002 80 0 0.0 0.0 0.00 0.03 0.00 39 1016.2
20240527154502 80 0 0.0 0.0 0.00 0.03 0.00 35 1016.1
20240527154003 80 0 0.0 0.0 0.00 0.03 0.00 38 1016.2
20240527153003 80 0 0.0 0.0 0.00 0.03 0.00 37 1016.2
20240527152502 80 0 0.0 0.0 0.00 0.03 0.00 36 1016.2
20240527152002 80 0 0.0 0.0 0.00 0.03 0.00 36 1016.2
20240527151502 81 0 0.0 0.0 0.00 0.03 0.00 38 1016.3
20240527151002 81 0 0.0 0.0 0.00 0.03 0.00 37 1016.3
20240527150503 81 0 0.0 0.0 0.00 0.03 0.00 37 1016.2
20240527150003 81 0 0.0 0.0 0.00 0.03 0.00 35 1016.2
20240527145502 81 0 0.0 0.0 0.00 0.03 0.00 35 1016.2
20240527145002 81 0 0.0 0.0 0.00 0.03 0.00 38 1016.3
20240527144502 81 0 0.0 0.0 0.00 0.03 0.00 35 1016.2
20240527143503 82 0 0.0 0.0 0.00 0.03 0.00 34 1016.4
20240527143002 82 0 0.0 0.0 0.00 0.03 0.00 36 1016.5
20240527142502 82 0 0.0 0.0 0.00 0.03 0.00 37 1016.5
20240527142003 82 0 0.0 0.0 0.00 0.03 0.00 37 1016.5
20240527141003 82 0 0.0 0.0 0.00 0.03 0.00 35 1016.6
20240527140504 82 0 0.0 0.0 0.00 0.03 0.00 37 1016.6
20240527135502 82 0 0.0 0.0 0.00 0.03 0.00 38 1016.8
20240527135004 82 0 0.0 0.0 0.00 0.03 0.00 40 1016.9
20240527134503 82 0 0.0 0.0 0.00 0.03 0.00 36 1016.9
20240527134002 82 0 0.0 0.0 0.00 0.03 0.00 41 1016.9
20240527133502 83 0 0.0 0.0 0.00 0.03 0.00 36 1017.0
20240527133002 83 0 0.0 0.0 0.00 0.03 0.00 37 1017.0
20240527132004 83 0 0.0 0.0 0.00 0.03 0.00 30 1017.1
20240527131503 83 0 0.0 0.0 0.00 0.03 0.00 32 1017.1
20240527131002 83 0 0.0 0.0 0.00 0.03 0.00 34 1017.2
20240527130502 83 0 0.0 0.0 0.00 0.03 0.00 31 1017.3
20240527130003 83 0 0.0 0.0 0.00 0.03 0.00 30 1017.4
20240527125503 83 0 0.0 0.0 0.00 0.03 0.00 32 1017.3
20240527124502 83 0 0.0 0.0 0.00 0.03 0.00 30 1017.5
20240527124002 83 0 0.0 0.0 0.00 0.03 0.00 31 1017.5
20240527122502 82 0 0.0 0.0 0.00 0.03 0.00 33 1017.6
20240527122003 82 0 0.0 0.0 0.00 0.03 0.00 31 1017.7
20240527121503 83 0 0.0 0.0 0.00 0.03 0.00 35 1017.8
20240527121003 83 0 0.0 0.0 0.00 0.03 0.00 38 1017.9
20240527120503 82 0 0.0 0.0 0.00 0.03 0.00 37 1017.8
20240527120003 83 0 0.0 0.0 0.00 0.03 0.00 38 1017.8
20240527115003 82 0 0.0 0.0 0.00 0.03 0.00 42 1018.0
20240527114503 81 0 0.0 0.0 0.00 0.03 0.00 35 1017.9
20240527114003 82 0 0.0 0.0 0.00 0.03 0.00 37 1018.1
20240527113503 82 0 0.0 0.0 0.00 0.03 0.00 39 1018.0
20240527113003 81 0 0.0 0.0 0.00 0.03 0.00 37 1018.1
20240527112503 81 0 0.0 0.0 0.00 0.03 0.00 38 1018.2
20240527112004 81 0 0.0 0.0 0.00 0.03 0.00 37 1018.3
20240527111503 81 0 0.0 0.0 0.00 0.03 0.00 38 1018.3
20240527111002 81 0 0.0 0.0 0.00 0.03 0.00 40 1018.4
20240527110503 82 0 0.0 0.0 0.00 0.03 0.00 46 1018.5
20240527110003 82 0 0.0 0.0 0.00 0.03 0.00 43 1018.5
20240527105504 81 0 0.0 0.0 0.00 0.03 0.00 47 1018.5
20240527105003 81 0 0.0 0.0 0.00 0.03 0.00 46 1018.6
20240527104504 81 0 0.0 0.0 0.00 0.03 0.00 50 1018.7
20240527104003 80 0 0.0 0.0 0.00 0.03 0.00 49 1018.7
20240527103502 80 0 0.0 0.0 0.00 0.03 0.00 49 1018.7
20240527103003 81 0 0.0 0.0 0.00 0.03 0.00 52 1018.8
20240527102503 80 0 0.0 0.0 0.00 0.03 0.00 51 1018.9
20240527102003 80 0 0.0 0.0 0.00 0.03 0.00 53 1018.9
20240527101503 79 0 0.0 0.0 0.00 0.03 0.00 50 1018.9
20240527101003 80 0 0.0 0.0 0.00 0.03 0.00 51 1018.9
20240527100502 79 0 0.0 0.0 0.00 0.03 0.00 52 1019.0
20240527095003 79 0 0.0 0.0 0.00 0.03 0.00 57 1019.1
20240527094003 78 0 0.0 0.0 0.00 0.03 0.00 53 1019.1
20240527093004 78 0 0.0 0.0 0.00 0.03 0.00 55 1019.2
20240527091503 78 0 0.0 0.0 0.00 0.03 0.00 53 1019.2
20240527091004 78 0 0.0 0.0 0.00 0.03 0.00 57 1019.4
20240527090503 77 0 0.0 0.0 0.00 0.03 0.00 58 1019.5
20240527090003 76 0 0.0 0.0 0.00 0.03 0.00 59 1019.5
20240527085503 76 0 0.0 0.0 0.00 0.03 0.00 55 1019.5
20240527085004 77 0 0.0 0.0 0.00 0.03 0.00 59 1019.5
20240527084505 76 0 0.0 0.0 0.00 0.03 0.00 56 1019.5
20240527084004 76 0 0.0 0.0 0.00 0.03 0.00 63 1019.6
20240527083503 76 0 0.0 0.0 0.00 0.03 0.00 62 1019.6
20240527083004 76 0 0.0 0.0 0.00 0.03 0.00 65 1019.6
20240527082503 75 0 0.0 0.0 0.00 0.03 0.00 61 1019.6
20240527082003 75 0 0.0 0.0 0.00 0.03 0.00 59 1019.7
20240527081504 75 0 0.0 0.0 0.00 0.03 0.00 63 1019.7
20240527081005 74 0 0.0 0.0 0.00 0.03 0.00 63 1019.7
20240527080505 74 0 0.0 0.0 0.00 0.03 0.00 66 1019.7
20240527075504 73 0 0.0 0.0 0.00 0.03 0.00 65 1019.7
20240527074504 72 0 0.0 0.0 0.00 0.03 0.00 66 1019.7
20240527074005 72 0 0.0 0.0 0.00 0.03 0.00 69 1019.8
20240527073504 71 0 0.0 0.0 0.00 0.03 0.00 70 1019.8
20240527073004 71 0 0.0 0.0 0.00 0.03 0.00 74 1019.8
20240527072504 70 0 0.0 0.0 0.00 0.03 0.00 73 1019.9
20240527072004 69 0 0.0 0.0 0.00 0.03 0.00 74 1019.9
20240527071505 69 0 0.0 0.0 0.00 0.03 0.00 73 1019.9
20240527071005 69 0 0.0 0.0 0.00 0.03 0.00 75 1019.9
20240527070503 68 0 0.0 0.0 0.00 0.03 0.00 76 1020.0
20240527070004 68 0 0.0 0.0 0.00 0.03 0.00 77 1019.8
20240527065004 67 0 0.0 0.0 0.00 0.03 0.00 79 1020.0
20240527064504 67 0 0.0 0.0 0.00 0.03 0.00 79 1020.0
20240527064004 66 0 0.0 0.0 0.00 0.03 0.00 79 1020.0
20240527063504 66 0 0.0 0.0 0.00 0.03 0.00 82 1020.1
20240527063004 65 0 0.0 0.0 0.00 0.03 0.00 84 1020.1
20240527062504 64 0 0.0 0.0 0.00 0.03 0.00 86 1020.1
20240527062005 64 0 0.0 0.0 0.00 0.03 0.00 87 1020.1
20240527061504 63 0 0.0 0.0 0.00 0.03 0.00 89 1020.0
20240527061004 62 0 0.0 0.0 0.00 0.03 0.00 91 1020.0
20240527060004 61 0 0.0 0.0 0.00 0.03 0.00 93 1020.0
20240527055504 60 0 0.0 0.0 0.00 0.03 0.00 94 1019.9
20240527054503 59 0 0.0 0.0 0.00 0.03 0.00 95 1020.0
20240527054004 59 0 0.0 0.0 0.00 0.03 0.00 95 1019.9
20240527053504 59 0 0.0 0.0 0.00 0.03 0.00 95 1020.0
20240527052504 58 0 0.0 0.0 0.00 0.03 0.00 95 1020.0
20240527052005 58 0 0.0 0.0 0.00 0.03 0.00 95 1019.9
20240527051504 58 0 0.0 0.0 0.00 0.03 0.00 95 1019.9
20240527051004 57 0 0.0 0.0 0.00 0.03 0.00 95 1020.0
20240527050504 57 0 0.0 0.0 0.00 0.03 0.00 95 1020.0
20240527050004 57 0 0.0 0.0 0.00 0.03 0.00 95 1019.9
20240527045504 56 0 0.0 0.0 0.00 0.03 0.00 96 1019.9
20240527044504 56 0 0.0 0.0 0.00 0.03 0.00 95 1019.8
20240527044004 56 0 0.0 0.0 0.00 0.03 0.00 95 1019.7
20240527043505 56 0 0.0 0.0 0.00 0.03 0.00 95 1019.7
20240527041005 53 0 0.0 0.0 0.00 0.03 0.00 95 1019.5
20240527040505 53 0 0.0 0.0 0.00 0.03 0.00 95 1019.5
20240527040004 53 0 0.0 0.0 0.00 0.03 0.00 95 1019.5
20240527035504 53 0 0.0 0.0 0.00 0.03 0.00 95 1019.5
20240527035006 52 0 0.0 0.0 0.00 0.03 0.00 95 1019.4
20240527034505 52 0 0.0 0.0 0.00 0.03 0.00 95 1019.4
20240527034004 52 0 0.0 0.0 0.00 0.03 0.00 95 1019.3
20240527033504 51 0 0.0 0.0 0.00 0.03 0.00 95 1019.4
20240527033004 51 0 0.0 0.0 0.00 0.03 0.00 95 1019.4
20240527032504 51 0 0.0 0.0 0.00 0.03 0.00 95 1019.4
20240527032006 51 0 0.0 0.0 0.00 0.03 0.00 95 1019.3
20240527031505 51 0 0.0 0.0 0.00 0.03 0.00 95 1019.4
20240527031004 51 0 0.0 0.0 0.00 0.03 0.00 95 1019.3
20240527030504 51 0 0.0 0.0 0.00 0.03 0.00 95 1019.4
20240527030005 51 0 0.0 0.0 0.00 0.03 0.00 95 1019.4
20240527025505 51 0 0.0 0.0 0.00 0.03 0.00 95 1019.4
20240527025004 51 0 0.0 0.0 0.00 0.03 0.00 94 1019.4
20240527024504 51 0 0.0 0.0 0.00 0.03 0.00 94 1019.4
20240527024004 51 0 0.0 0.0 0.00 0.03 0.00 94 1019.4
20240527023505 51 0 0.0 0.0 0.00 0.03 0.00 94 1019.4
20240527023005 51 0 0.0 0.0 0.00 0.03 0.00 95 1019.3
20240527022005 51 0 0.0 0.0 0.00 0.03 0.00 94 1019.4
20240527021505 51 0 0.0 0.0 0.00 0.03 0.00 94 1019.3
20240527021005 52 0 0.0 0.0 0.00 0.03 0.00 95 1019.3
20240527020504 52 0 0.0 0.0 0.00 0.03 0.00 94 1019.4
20240527020005 52 0 0.0 0.0 0.00 0.03 0.00 94 1019.3
20240527015504 52 0 0.0 0.0 0.00 0.03 0.00 94 1019.4
20240527015005 53 0 0.0 0.0 0.00 0.03 0.00 95 1019.4
20240527014005 53 0 0.0 0.0 0.00 0.03 0.00 94 1019.4
20240527013005 53 0 0.0 0.0 0.00 0.03 0.00 94 1019.4
20240527012505 53 0 0.0 0.0 0.00 0.03 0.00 94 1019.4
20240527012005 53 0 0.0 0.0 0.00 0.03 0.00 94 1019.4
20240527011504 53 0 0.0 0.0 0.00 0.03 0.00 94 1019.5
20240527011004 53 0 0.0 0.0 0.00 0.03 0.00 94 1019.5
20240527010505 53 0 0.0 0.0 0.00 0.03 0.00 94 1019.4
20240527010005 53 0 0.0 0.0 0.00 0.03 0.00 94 1019.5
20240527005505 53 0 0.0 0.0 0.00 0.03 0.00 94 1019.5
20240527005005 53 0 0.0 0.0 0.00 0.03 0.00 94 1019.6
20240527004505 53 0 0.0 0.0 0.00 0.03 0.00 94 1019.5
20240527004005 53 0 0.0 0.0 0.00 0.03 0.00 94 1019.7
20240527003005 53 0 0.0 0.0 0.00 0.03 0.00 94 1019.7
20240527002505 54 0 0.0 0.0 0.00 0.03 0.00 94 1019.7
20240527002006 54 0 0.0 0.0 0.00 0.03 0.00 94 1019.7
20240527001505 54 0 0.0 0.0 0.00 0.03 0.00 94 1019.7
20240527000505 53 0 0.0 0.0 0.00 0.03 0.00 94 1019.7
20240526235005 54 0 0.0 0.0 0.00 0.03 0.00 94 1019.7
20240526234005 54 0 0.0 0.0 0.00 0.03 0.00 94 1019.9
20240526233505 54 0 0.0 0.0 0.00 0.03 0.00 94 1019.7
20240526233005 55 0 0.0 0.0 0.00 0.03 0.00 94 1019.7
20240526232505 55 0 0.0 0.0 0.00 0.03 0.00 94 1019.8
20240526232005 55 0 0.0 0.0 0.00 0.03 0.00 94 1019.8
20240526231506 55 0 0.0 0.0 0.00 0.03 0.00 94 1019.8
20240526231005 56 0 0.0 0.0 0.00 0.03 0.00 94 1019.8
20240526230505 56 0 0.0 0.0 0.00 0.03 0.00 94 1019.9
20240526230001 56 0 0.0 0.0 0.00 0.03 0.00 94 1019.8
20240526225500 56 0 0.0 0.0 0.00 0.03 0.00 94 1019.9
20240526225001 56 0 0.0 0.0 0.00 0.03 0.00 94 1019.9
20240526224501 56 0 0.0 0.0 0.00 0.03 0.00 94 1020.0
20240526224000 57 0 0.0 0.0 0.00 0.03 0.00 94 1019.9
20240526223501 57 0 0.0 0.0 0.00 0.03 0.00 94 1019.9
20240526223002 57 0 0.0 0.0 0.00 0.03 0.00 94 1019.9
20240526222501 58 0 0.0 0.0 0.00 0.03 0.00 94 1020.0
20240526222000 58 0 0.0 0.0 0.00 0.03 0.00 94 1019.9
20240526221501 58 0 0.0 0.0 0.00 0.03 0.00 94 1020.0
20240526220501 58 0 0.0 0.0 0.00 0.03 0.00 94 1020.0
20240526220002 58 0 0.0 0.0 0.00 0.03 0.00 94 1020.0
20240526215501 58 0 0.0 0.0 0.00 0.03 0.03 94 1020.1
20240526215002 58 0 0.0 0.0 0.00 0.03 0.03 94 1020.1
20240526214500 58 0 0.0 0.0 0.00 0.03 0.03 94 1020.1
20240526214000 59 0 0.0 0.0 0.00 0.03 0.03 94 1020.1
20240526213001 59 0 0.0 0.0 0.00 0.03 0.03 94 1019.9
20240526212501 59 0 0.0 0.0 0.00 0.03 0.03 94 1019.9
20240526212001 60 0 0.0 0.0 0.00 0.03 0.03 94 1019.8
20240526211502 60 0 0.0 0.0 0.01 0.03 0.03 94 1019.8
20240526211001 60 0 0.0 0.0 0.01 0.03 0.03 94 1019.8
20240526210501 59 0 0.0 0.0 0.01 0.03 0.03 94 1019.7
20240526210002 59 0 0.0 0.0 0.01 0.03 0.03 94 1019.8
20240526205501 60 0 0.0 0.0 0.01 0.03 0.03 94 1019.8
20240526205001 59 0 0.0 0.0 0.01 0.03 0.03 94 1019.7
20240526204501 59 0 0.0 0.0 0.01 0.03 0.03 93 1019.8
20240526204001 59 0 0.0 0.0 0.01 0.03 0.03 93 1019.7
20240526203001 60 0 0.0 0.0 0.01 0.03 0.03 93 1019.8
20240526202502 60 0 0.0 0.0 0.01 0.03 0.03 93 1019.9
20240526202002 60 0 0.0 0.0 0.01 0.03 0.03 93 1019.8
20240526201502 60 0 0.0 0.0 0.00 0.02 0.02 93 1019.8
20240526201001 60 0 0.0 0.0 0.00 0.02 0.02 92 1019.8
20240526200001 60 0 0.0 0.0 0.01 0.02 0.02 92 1019.8
20240526195501 60 0 0.0 0.0 0.02 0.02 0.02 92 1019.9
20240526195003 60 0 0.0 0.0 0.02 0.02 0.02 92 1020.0
20240526194501 60 0 0.0 0.0 0.02 0.02 0.02 91 1019.9
20240526194002 60 0 0.0 0.0 0.02 0.02 0.02 91 1019.9
20240526193001 60 0 0.0 0.0 0.02 0.02 0.02 90 1019.9
20240526192503 60 0 0.0 0.0 0.02 0.02 0.02 90 1020.0
20240526191502 60 0 0.0 0.0 0.02 0.02 0.02 88 1019.8
20240526191001 60 0 0.0 0.0 0.02 0.02 0.02 87 1019.9
20240526190501 61 0 0.0 0.0 0.02 0.02 0.02 84 1019.9
20240526185501 64 0 0.0 0.0 0.01 0.01 0.01 77 1020.1
20240526185001 67 0 0.0 0.0 0.00 0.00 0.00 73 1020.3